Data No,UTC Date,UTC Time,Latitude,Longitude,Course(deg),Temp(degC),Sal(psu)
836,2003/3/5,17:06:00,30-59.8800N,138-30.8000E,164,18.742,34.8357
837,2003/3/5,17:07:00,30-59.7000N,138-30.8600E,164,18.746,34.8357
838,2003/3/5,17:08:00,30-59.4000N,138-30.9600E,164,18.752,34.8386
839,2003/3/5,17:09:00,30-59.1800N,138-31.0300E,164,18.753,34.8428
840,2003/3/5,17:10:00,30-58.9400N,138-31.1100E,165,18.744,34.8461
841,2003/3/5,17:11:00,30-58.7300N,138-31.1700E,165,18.733,34.847
842,2003/3/5,17:12:00,30-58.5800N,138-31.2200E,163,18.716,34.8467
843,2003/3/5,17:13:00,30-58.2600N,138-31.3400E,160,18.694,34.8468
844,2003/3/5,17:14:00,30-58.0600N,138-31.4200E,161,18.692,34.8441
846,2003/3/5,17:16:00,30-57.6600N,138-31.5800E,161,18.695,34.8416
847,2003/3/5,17:17:00,30-57.3600N,138-31.7000E,160,18.696,34.8413
848,2003/3/5,17:18:00,30-57.1300N,138-31.7900E,160,18.7,34.8408
849,2003/3/5,17:19:00,30-56.9300N,138-31.8700E,160,18.698,34.8408
850,2003/3/5,17:20:00,30-56.6800N,138-31.9800E,160,18.697,34.8403
851,2003/3/5,17:21:00,30-56.4500N,138-32.0700E,160,18.704,34.8403
852,2003/3/5,17:22:00,30-56.2300N,138-32.1600E,161,18.706,34.8425
853,2003/3/5,17:23:00,30-55.9900N,138-32.2600E,161,18.71,34.8442
854,2003/3/5,17:24:00,30-55.7900N,138-32.3400E,160,18.708,34.8443
855,2003/3/5,17:25:00,30-55.6000N,138-32.4200E,160,18.711,34.8442
856,2003/3/5,17:26:00,30-55.3200N,138-32.5300E,160,18.709,34.8438
857,2003/3/5,17:27:00,30-55.1700N,138-32.6000E,160,18.713,34.8443
858,2003/3/5,17:28:00,30-54.9400N,138-32.6900E,160,18.719,34.8437
859,2003/3/5,17:29:00,30-54.6600N,138-32.8000E,161,18.727,34.8424
860,2003/3/5,17:30:00,30-54.4300N,138-32.8900E,160,18.728,34.8419
861,2003/3/5,17:31:00,30-54.2400N,138-32.9700E,160,18.728,34.8415
862,2003/3/5,17:32:00,30-53.9800N,138-33.0700E,161,18.733,34.8411
863,2003/3/5,17:33:00,30-53.8000N,138-33.1400E,161,18.737,34.8408
864,2003/3/5,17:34:00,30-53.5300N,138-33.2500E,161,18.731,34.841
865,2003/3/5,17:35:00,30-53.3100N,138-33.3300E,160,18.728,34.8417
866,2003/3/5,17:36:00,30-53.0700N,138-33.4300E,160,18.727,34.8426
867,2003/3/5,17:37:00,30-52.8800N,138-33.5000E,161,18.725,34.844
868,2003/3/5,17:38:00,30-52.6400N,138-33.5900E,161,18.729,34.8451
869,2003/3/5,17:39:00,30-52.4200N,138-33.6700E,161,18.732,34.8459
870,2003/3/5,17:40:00,30-52.1900N,138-33.7600E,161,18.733,34.8455
871,2003/3/5,17:41:00,30-51.9800N,138-33.8400E,161,18.733,34.8454
872,2003/3/5,17:42:00,30-51.7500N,138-33.9300E,161,18.735,34.8452
873,2003/3/5,17:43:00,30-51.5100N,138-34.0200E,162,18.743,34.845
874,2003/3/5,17:44:00,30-51.3000N,138-34.1000E,161,18.748,34.8458
875,2003/3/5,17:45:00,30-51.1300N,138-34.1700E,162,18.743,34.8467
876,2003/3/5,17:46:00,30-50.8300N,138-34.2800E,161,18.746,34.8464
877,2003/3/5,17:47:00,30-50.6900N,138-34.3300E,162,18.743,34.8465
878,2003/3/5,17:48:00,30-50.3900N,138-34.4500E,161,18.74,34.8469
879,2003/3/5,17:49:00,30-50.2200N,138-34.5200E,161,18.737,34.847
880,2003/3/5,17:50:00,30-49.9500N,138-34.6200E,162,18.737,34.847
881,2003/3/5,17:51:00,30-49.7200N,138-34.7000E,162,18.739,34.8469
882,2003/3/5,17:52:00,30-49.5000N,138-34.7800E,162,18.739,34.8462
883,2003/3/5,17:53:00,30-49.2700N,138-34.8600E,162,18.742,34.8465
884,2003/3/5,17:54:00,30-49.0700N,138-34.9300E,162,18.745,34.8468
885,2003/3/5,17:55:00,30-48.8200N,138-35.0300E,162,18.749,34.8464
886,2003/3/5,17:56:00,30-48.5900N,138-35.1100E,161,18.745,34.8471
887,2003/3/5,17:57:00,30-48.5700N,138-35.1200E,161,18.749,34.8474
888,2003/3/5,17:58:00,30-48.1400N,138-35.2800E,162,18.746,34.8478
889,2003/3/5,17:59:00,30-47.9300N,138-35.3500E,162,18.746,34.8476
890,2003/3/5,18:00:00,30-47.7200N,138-35.4300E,162,18.743,34.8484
891,2003/3/5,18:01:00,30-47.4600N,138-35.5200E,162,18.744,34.8486
892,2003/3/5,18:02:00,30-47.2300N,138-35.6000E,162,18.743,34.8479
893,2003/3/5,18:03:00,30-47.0800N,138-35.6600E,162,18.74,34.8481
894,2003/3/5,18:04:00,30-46.8100N,138-35.7600E,160,18.747,34.8477
895,2003/3/5,18:05:00,30-46.5900N,138-35.8500E,158,18.748,34.8472
896,2003/3/5,18:06:00,30-46.3900N,138-35.9500E,158,18.752,34.8476
897,2003/3/5,18:07:00,30-46.2000N,138-36.0400E,157,18.75,34.8477
898,2003/3/5,18:08:00,30-45.9400N,138-36.1600E,158,18.752,34.848
899,2003/3/5,18:09:00,30-45.7300N,138-36.2600E,157,18.755,34.8472
900,2003/3/5,18:10:00,30-45.5400N,138-36.3400E,157,18.753,34.8474
901,2003/3/5,18:11:00,30-45.2800N,138-36.4700E,158,18.75,34.8469
902,2003/3/5,18:12:00,30-45.0600N,138-36.5700E,158,18.748,34.8464
903,2003/3/5,18:13:00,30-44.8400N,138-36.6700E,159,18.743,34.8459
904,2003/3/5,18:14:00,30-44.6000N,138-36.7800E,157,18.743,34.8456
905,2003/3/5,18:15:00,30-44.4600N,138-36.8500E,157,18.745,34.8452
906,2003/3/5,18:16:00,30-44.1700N,138-36.9800E,158,18.75,34.8446
907,2003/3/5,18:17:00,30-43.9900N,138-37.0700E,157,18.749,34.8447
908,2003/3/5,18:18:00,30-43.7400N,138-37.1900E,157,18.75,34.8452
909,2003/3/5,18:19:00,30-43.5600N,138-37.2700E,158,18.752,34.8453
910,2003/3/5,18:20:00,30-43.3300N,138-37.3800E,158,18.754,34.8453
911,2003/3/5,18:21:00,30-43.1000N,138-37.4800E,158,18.754,34.8455
912,2003/3/5,18:22:00,30-42.9100N,138-37.5700E,158,18.75,34.8467
913,2003/3/5,18:23:00,30-42.6700N,138-37.6800E,158,18.747,34.8466
914,2003/3/5,18:24:00,30-42.4500N,138-37.7800E,158,18.747,34.8472
915,2003/3/5,18:25:00,30-42.2500N,138-37.8700E,158,18.744,34.848
916,2003/3/5,18:26:00,30-42.0000N,138-37.9800E,158,18.746,34.8475
917,2003/3/5,18:27:00,30-41.7800N,138-38.0800E,158,18.747,34.8481
918,2003/3/5,18:28:00,30-41.5600N,138-38.1900E,157,18.749,34.8479
919,2003/3/5,18:29:00,30-41.3700N,138-38.2700E,158,18.751,34.8482
920,2003/3/5,18:30:00,30-41.1200N,138-38.3900E,158,18.753,34.8485
921,2003/3/5,18:31:00,30-40.9500N,138-38.4600E,158,18.756,34.8481
922,2003/3/5,18:32:00,30-40.6800N,138-38.5900E,157,18.752,34.8482
923,2003/3/5,18:33:00,30-40.4800N,138-38.6900E,157,18.748,34.8474
924,2003/3/5,18:34:00,30-40.2500N,138-38.7900E,158,18.75,34.8481
925,2003/3/5,18:35:00,30-40.0200N,138-38.8900E,159,18.743,34.847
926,2003/3/5,18:36:00,30-39.8000N,138-38.9900E,158,18.746,34.8465
927,2003/3/5,18:37:00,30-39.5900N,138-39.0800E,159,18.746,34.8457
928,2003/3/5,18:38:00,30-39.3800N,138-39.1700E,160,18.747,34.8444
929,2003/3/5,18:39:00,30-39.1500N,138-39.2700E,159,18.747,34.8443
930,2003/3/5,18:40:00,30-38.9500N,138-39.3500E,159,18.752,34.8433
932,2003/3/5,18:42:00,30-38.5500N,138-39.5200E,159,18.755,34.8424
933,2003/3/5,18:43:00,30-38.2600N,138-39.6500E,159,18.76,34.8424
934,2003/3/5,18:44:00,30-38.0500N,138-39.7400E,160,18.757,34.8425
935,2003/3/5,18:45:00,30-37.8400N,138-39.8300E,159,18.751,34.8427
936,2003/3/5,18:46:00,30-37.6100N,138-39.9300E,159,18.745,34.8429
937,2003/3/5,18:47:00,30-37.4500N,138-39.9900E,160,18.742,34.8429
938,2003/3/5,18:48:00,30-37.1700N,138-40.1100E,160,18.741,34.843
939,2003/3/5,18:49:00,30-36.9600N,138-40.2000E,161,18.742,34.8431
940,2003/3/5,18:50:00,30-36.7100N,138-40.3000E,160,18.744,34.8439
941,2003/3/5,18:51:00,30-36.5200N,138-40.3800E,160,18.751,34.8435
942,2003/3/5,18:52:00,30-36.3600N,138-40.4500E,159,18.751,34.8438
943,2003/3/5,18:53:00,30-36.0800N,138-40.5600E,160,18.754,34.8447
944,2003/3/5,18:54:00,30-35.9100N,138-40.6300E,160,18.75,34.8451
945,2003/3/5,18:55:00,30-35.6000N,138-40.7600E,160,18.748,34.8451
946,2003/3/5,18:56:00,30-35.3900N,138-40.8500E,159,18.745,34.8452
947,2003/3/5,18:57:00,30-35.2500N,138-40.9100E,160,18.742,34.8452
948,2003/3/5,18:58:00,30-34.9400N,138-41.0400E,160,18.741,34.8457
949,2003/3/5,18:59:00,30-34.7200N,138-41.1300E,159,18.738,34.8459
950,2003/3/5,19:00:00,30-34.5900N,138-41.1800E,159,18.737,34.8459
951,2003/3/5,19:01:00,30-34.2700N,138-41.3200E,160,18.741,34.8463
952,2003/3/5,19:02:00,30-34.0400N,138-41.4100E,160,18.742,34.8468
953,2003/3/5,19:03:00,30-33.8200N,138-41.5000E,159,18.742,34.8462
954,2003/3/5,19:04:00,30-33.7200N,138-41.5500E,159,18.742,34.8474
955,2003/3/5,19:05:00,30-33.3700N,138-41.6900E,159,18.74,34.8477
956,2003/3/5,19:06:00,30-33.2000N,138-41.7600E,160,18.737,34.8475
957,2003/3/5,19:07:00,30-32.9500N,138-41.8700E,160,18.733,34.8475
958,2003/3/5,19:08:00,30-32.7200N,138-41.9600E,158,18.727,34.8477
959,2003/3/5,19:09:00,30-32.4900N,138-42.0700E,158,18.727,34.8481
960,2003/3/5,19:10:00,30-32.2800N,138-42.1600E,159,18.727,34.8489
961,2003/3/5,19:11:00,30-32.0500N,138-42.2600E,159,18.74,34.8499
962,2003/3/5,19:12:00,30-31.8200N,138-42.3600E,159,18.763,34.8505
963,2003/3/5,19:13:00,30-31.6100N,138-42.4600E,159,18.807,34.8524
964,2003/3/5,19:14:00,30-31.3800N,138-42.5600E,159,18.868,34.8543
965,2003/3/5,19:15:00,30-31.1400N,138-42.6600E,158,18.937,34.8592
966,2003/3/5,19:16:00,30-30.9400N,138-42.7500E,158,19.006,34.8622
967,2003/3/5,19:17:00,30-30.7800N,138-42.8300E,158,19.053,34.8671
968,2003/3/5,19:18:00,30-30.5000N,138-42.9500E,159,19.08,34.8696
969,2003/3/5,19:19:00,30-30.2900N,138-43.0400E,158,19.116,34.8712
970,2003/3/5,19:20:00,30-30.0800N,138-43.1300E,159,19.144,34.8728
971,2003/3/5,19:21:00,30-29.8400N,138-43.2400E,159,19.168,34.8751
972,2003/3/5,19:22:00,30-29.7300N,138-43.2800E,159,19.186,34.8758
973,2003/3/5,19:23:00,30-29.4100N,138-43.4100E,159,19.202,34.8756
974,2003/3/5,19:24:00,30-29.2300N,138-43.4900E,160,19.214,34.8756
975,2003/3/5,19:25:00,30-29.0300N,138-43.5600E,160,19.237,34.8739
976,2003/3/5,19:26:00,30-28.7000N,138-43.7000E,160,19.256,34.8714
977,2003/3/5,19:27:00,30-28.5300N,138-43.7600E,161,19.268,34.8727
978,2003/3/5,19:28:00,30-28.2600N,138-43.8800E,160,19.273,34.875
979,2003/3/5,19:29:00,30-28.0500N,138-43.9600E,161,19.268,34.8776
980,2003/3/5,19:30:00,30-27.8300N,138-44.0400E,161,19.266,34.8795
981,2003/3/5,19:31:00,30-27.5800N,138-44.1400E,161,19.25,34.881
982,2003/3/5,19:32:00,30-27.3700N,138-44.2200E,160,19.231,34.881
983,2003/3/5,19:33:00,30-27.2000N,138-44.2900E,161,19.204,34.8804
984,2003/3/5,19:34:00,30-26.9200N,138-44.4000E,161,19.174,34.8792
985,2003/3/5,19:35:00,30-26.7000N,138-44.4900E,161,19.143,34.8782
986,2003/3/5,19:36:00,30-26.4600N,138-44.5800E,160,19.116,34.8747
987,2003/3/5,19:37:00,30-26.2700N,138-44.6600E,161,19.071,34.8718
988,2003/3/5,19:38:00,30-26.0700N,138-44.7500E,158,19.021,34.8701
989,2003/3/5,19:39:00,30-25.8800N,138-44.8400E,158,19.028,34.8646
990,2003/3/5,19:40:00,30-25.6300N,138-44.9400E,158,19.042,34.8615
991,2003/3/5,19:41:00,30-25.3900N,138-45.0500E,160,19.056,34.8616
992,2003/3/5,19:42:00,30-25.1600N,138-45.1400E,160,19.065,34.8618
993,2003/3/5,19:43:00,30-24.9900N,138-45.2100E,160,19.075,34.8621
994,2003/3/5,19:44:00,30-24.7400N,138-45.3100E,160,19.088,34.8625
995,2003/3/5,19:45:00,30-24.5000N,138-45.4000E,161,19.099,34.8621
996,2003/3/5,19:46:00,30-24.2900N,138-45.4900E,159,19.112,34.8626
997,2003/3/5,19:47:00,30-24.0700N,138-45.5800E,160,19.125,34.8627
998,2003/3/5,19:48:00,30-23.8400N,138-45.6800E,159,19.138,34.863
999,2003/3/5,19:49:00,30-23.6800N,138-45.7400E,160,19.146,34.8625
1000,2003/3/5,19:50:00,30-23.4100N,138-45.8500E,160,19.144,34.8635
1001,2003/3/5,19:51:00,30-23.1800N,138-45.9500E,158,19.135,34.8636
1002,2003/3/5,19:52:00,30-23.1100N,138-45.9800E,157,19.105,34.8634
1003,2003/3/5,19:53:00,30-22.7600N,138-46.1400E,158,19.123,34.8632
1004,2003/3/5,19:54:00,30-22.5500N,138-46.2400E,158,19.142,34.8642
1005,2003/3/5,19:55:00,30-22.3500N,138-46.3300E,159,19.153,34.8654
1006,2003/3/5,19:56:00,30-22.1100N,138-46.4400E,159,19.158,34.8657
1007,2003/3/5,19:57:00,30-21.9000N,138-46.5300E,159,19.166,34.8658
1008,2003/3/5,19:58:00,30-21.6700N,138-46.6200E,159,19.174,34.8671
1009,2003/3/5,19:59:00,30-21.5200N,138-46.7000E,158,19.184,34.8674
1010,2003/3/5,20:00:00,30-21.2600N,138-46.8100E,158,19.194,34.8672
1011,2003/3/5,20:01:00,30-21.0500N,138-46.9000E,159,19.201,34.8682
1012,2003/3/5,20:02:00,30-20.8200N,138-47.0000E,158,19.206,34.868
1013,2003/3/5,20:03:00,30-20.5900N,138-47.1100E,157,19.213,34.8688
1014,2003/3/5,20:04:00,30-20.3900N,138-47.2000E,159,19.212,34.8687
1015,2003/3/5,20:05:00,30-20.2300N,138-47.2700E,160,19.212,34.8694
1016,2003/3/5,20:06:00,30-19.9500N,138-47.3900E,159,19.208,34.869
1017,2003/3/5,20:07:00,30-19.7500N,138-47.4700E,159,19.205,34.8692
1018,2003/3/5,20:08:00,30-19.5300N,138-47.5700E,159,19.205,34.8689
1019,2003/3/5,20:09:00,30-19.2800N,138-47.6800E,159,19.204,34.8689
1020,2003/3/5,20:10:00,30-19.0700N,138-47.7800E,158,19.203,34.8704
1021,2003/3/5,20:11:00,30-18.8700N,138-47.8700E,157,19.205,34.8715
1022,2003/3/5,20:12:00,30-18.6400N,138-47.9700E,158,19.206,34.8734
1023,2003/3/5,20:13:00,30-18.4500N,138-48.0600E,157,19.21,34.8751
1024,2003/3/5,20:14:00,30-18.2100N,138-48.1700E,158,19.21,34.8756
1025,2003/3/5,20:15:00,30-17.9800N,138-48.2800E,158,19.214,34.8765
1026,2003/3/5,20:16:00,30-17.7900N,138-48.3600E,158,19.212,34.8775
1027,2003/3/5,20:17:00,30-17.5500N,138-48.4700E,159,19.211,34.8773
1028,2003/3/5,20:18:00,30-17.3200N,138-48.5700E,159,19.206,34.8772
1029,2003/3/5,20:19:00,30-17.1000N,138-48.6700E,158,19.2,34.876
1030,2003/3/5,20:20:00,30-16.9300N,138-48.7400E,159,19.199,34.8758
1031,2003/3/5,20:21:00,30-16.6900N,138-48.8500E,158,19.193,34.8748
1032,2003/3/5,20:22:00,30-16.5100N,138-48.9300E,158,19.192,34.8744
1033,2003/3/5,20:23:00,30-16.3000N,138-49.0300E,159,19.192,34.8739
1034,2003/3/5,20:24:00,30-16.0200N,138-49.1500E,159,19.189,34.8732
1035,2003/3/5,20:25:00,30-15.8100N,138-49.2400E,158,19.186,34.8732
1036,2003/3/5,20:26:00,30-15.6400N,138-49.3200E,158,19.18,34.8731
1037,2003/3/5,20:27:00,30-15.4000N,138-49.4300E,158,19.172,34.8728
1038,2003/3/5,20:28:00,30-15.1700N,138-49.5300E,158,19.166,34.8737
1039,2003/3/5,20:29:00,30-15.0500N,138-49.5900E,160,19.153,34.8737
1040,2003/3/5,20:30:00,30-14.7600N,138-49.7000E,160,19.141,34.8738
1041,2003/3/5,20:31:00,30-14.5800N,138-49.7700E,160,19.123,34.8739
1042,2003/3/5,20:32:00,30-14.4000N,138-49.8500E,160,19.117,34.8734
1043,2003/3/5,20:33:00,30-14.1300N,138-49.9500E,160,19.109,34.8731
1044,2003/3/5,20:34:00,30-13.8900N,138-50.0600E,160,19.106,34.8737
1045,2003/3/5,20:35:00,30-13.7600N,138-50.1200E,159,19.094,34.8738
1046,2003/3/5,20:36:00,30-13.5900N,138-50.1900E,159,19.054,34.874
1047,2003/3/5,20:37:00,30-13.2600N,138-50.3300E,159,19.028,34.8722
1048,2003/3/5,20:38:00,30-13.0300N,138-50.4200E,160,19.016,34.8674
1049,2003/3/5,20:39:00,30-12.8300N,138-50.5100E,159,19.018,34.8628
1050,2003/3/5,20:40:00,30-12.6000N,138-50.6000E,160,19.022,34.8618
1051,2003/3/5,20:41:00,30-12.3900N,138-50.6900E,159,19.021,34.8601
1052,2003/3/5,20:42:00,30-12.1700N,138-50.7800E,159,19.022,34.859
1053,2003/3/5,20:43:00,30-11.9800N,138-50.8600E,160,19.018,34.8593
1054,2003/3/5,20:44:00,30-11.7300N,138-50.9600E,159,19.017,34.8599
1055,2003/3/5,20:45:00,30-11.5200N,138-51.0500E,160,19.018,34.8599
1056,2003/3/5,20:46:00,30-11.3100N,138-51.1400E,159,19.038,34.8606
1057,2003/3/5,20:47:00,30-11.0800N,138-51.2300E,159,19.065,34.864
1058,2003/3/5,20:48:00,30-10.8700N,138-51.3200E,161,19.096,34.8689
1059,2003/3/5,20:49:00,30-10.6500N,138-51.4100E,159,19.115,34.872
1060,2003/3/5,20:50:00,30-10.4400N,138-51.5000E,160,19.128,34.8746
1061,2003/3/5,20:51:00,30-10.2300N,138-51.5800E,160,19.136,34.8754
1062,2003/3/5,20:52:00,30-10.0100N,138-51.6700E,160,19.141,34.8763
1063,2003/3/5,20:53:00,30-09.8000N,138-51.7600E,159,19.146,34.8765
1064,2003/3/5,20:54:00,30-09.5700N,138-51.8500E,159,19.15,34.8756
1065,2003/3/5,20:55:00,30-09.3700N,138-51.9400E,159,19.158,34.8763
1066,2003/3/5,20:56:00,30-09.1400N,138-52.0300E,159,19.165,34.8758
1067,2003/3/5,20:57:00,30-08.9300N,138-52.1200E,160,19.167,34.8753
1068,2003/3/5,20:58:00,30-08.7600N,138-52.1900E,160,19.17,34.875
1069,2003/3/5,20:59:00,30-08.4900N,138-52.2900E,161,19.17,34.8746
1070,2003/3/5,21:00:00,30-08.2600N,138-52.3900E,160,19.17,34.8738
1071,2003/3/5,21:01:00,30-08.0700N,138-52.4600E,160,19.172,34.8737
1072,2003/3/5,21:02:00,30-07.8300N,138-52.5600E,160,19.173,34.8735
1073,2003/3/5,21:03:00,30-07.6300N,138-52.6400E,161,19.182,34.8735
1074,2003/3/5,21:04:00,30-07.4600N,138-52.7000E,161,19.186,34.8746
1075,2003/3/5,21:05:00,30-07.1700N,138-52.8200E,161,19.185,34.876
1076,2003/3/5,21:06:00,30-06.9500N,138-52.9000E,161,19.194,34.8766
1077,2003/3/5,21:07:00,30-06.7300N,138-52.9800E,162,19.204,34.8765
1078,2003/3/5,21:08:00,30-06.5200N,138-53.0600E,162,19.206,34.8781
1079,2003/3/5,21:09:00,30-06.2800N,138-53.1500E,162,19.212,34.8779
1080,2003/3/5,21:10:00,30-06.0600N,138-53.2300E,161,19.211,34.8772
1081,2003/3/5,21:11:00,30-05.8500N,138-53.3100E,161,19.217,34.8777
1082,2003/3/5,21:12:00,30-05.6100N,138-53.4000E,162,19.214,34.8783
1083,2003/3/5,21:13:00,30-05.5000N,138-53.4400E,161,19.213,34.8791
1084,2003/3/5,21:14:00,30-05.1700N,138-53.5600E,163,19.212,34.8788
1085,2003/3/5,21:15:00,30-04.9500N,138-53.6400E,161,19.211,34.8794
1086,2003/3/5,21:16:00,30-04.7200N,138-53.7300E,161,19.204,34.879
1087,2003/3/5,21:17:00,30-04.5200N,138-53.8000E,161,19.208,34.8788
1088,2003/3/5,21:18:00,30-04.3000N,138-53.8800E,162,19.211,34.8784
1089,2003/3/5,21:19:00,30-04.0500N,138-53.9800E,162,19.208,34.8775
1090,2003/3/5,21:20:00,30-03.8300N,138-54.0600E,161,19.202,34.8776
1091,2003/3/5,21:21:00,30-03.6500N,138-54.1200E,161,19.201,34.8771
1092,2003/3/5,21:22:00,30-03.3800N,138-54.2200E,162,19.198,34.8776
1093,2003/3/5,21:23:00,30-03.1600N,138-54.3000E,162,19.2,34.8767
1094,2003/3/5,21:24:00,30-02.9700N,138-54.3700E,162,19.202,34.8769
1095,2003/3/5,21:25:00,30-02.7200N,138-54.4700E,160,19.201,34.8779
1096,2003/3/5,21:26:00,30-02.5000N,138-54.5600E,160,19.208,34.8781
1097,2003/3/5,21:27:00,30-02.2900N,138-54.6400E,160,19.218,34.8797
1098,2003/3/5,21:28:00,30-02.1000N,138-54.7200E,160,19.239,34.8803
1099,2003/3/5,21:29:00,30-01.8500N,138-54.8200E,160,19.253,34.8815
1100,2003/3/5,21:30:00,30-01.7000N,138-54.8800E,160,19.271,34.8827
1101,2003/3/5,21:31:00,30-01.4000N,138-55.0000E,159,19.286,34.8832
1102,2003/3/5,21:32:00,30-01.2100N,138-55.0800E,161,19.298,34.8847
1103,2003/3/5,21:33:00,30-00.9800N,138-55.1700E,161,19.302,34.8854
1104,2003/3/5,21:34:00,30-00.7700N,138-55.2500E,161,19.312,34.8855
1105,2003/3/5,21:35:00,30-00.5600N,138-55.3300E,162,19.318,34.8853
1106,2003/3/5,21:36:00,30-00.3000N,138-55.4300E,161,19.325,34.8863
1107,2003/3/5,21:37:00,30-00.1700N,138-55.4800E,161,19.337,34.887
1108,2003/3/5,21:38:00,29-59.9000N,138-55.5800E,161,19.344,34.8866
1109,2003/3/5,21:39:00,29-59.7900N,138-55.6200E,161,19.351,34.8869
1110,2003/3/5,21:40:00,29-59.4700N,138-55.7400E,160,19.362,34.8864
1111,2003/3/5,21:41:00,29-59.2400N,138-55.8300E,161,19.367,34.8861
1112,2003/3/5,21:42:00,29-58.9900N,138-55.9300E,160,19.373,34.8868
1113,2003/3/5,21:43:00,29-58.7800N,138-56.0100E,161,19.379,34.8863
1114,2003/3/5,21:44:00,29-58.5300N,138-56.1100E,161,19.379,34.8871
1115,2003/3/5,21:45:00,29-58.3100N,138-56.1800E,162,19.374,34.8869
1116,2003/3/5,21:46:00,29-58.1500N,138-56.2500E,162,19.367,34.887
1117,2003/3/5,21:47:00,29-57.8700N,138-56.3500E,161,19.368,34.8866
1118,2003/3/5,21:48:00,29-57.8000N,138-56.3700E,161,19.362,34.8859
1119,2003/3/5,21:49:00,29-57.4300N,138-56.5300E,159,19.36,34.8862
1120,2003/3/5,21:50:00,29-57.2400N,138-56.6100E,160,19.355,34.8853
1121,2003/3/5,21:51:00,29-56.9800N,138-56.7200E,159,19.347,34.885
1122,2003/3/5,21:52:00,29-56.8600N,138-56.7700E,159,19.338,34.8837
1123,2003/3/5,21:53:00,29-56.5500N,138-56.9000E,159,19.324,34.8824
1124,2003/3/5,21:54:00,29-56.3300N,138-56.9900E,159,19.307,34.8809
1125,2003/3/5,21:55:00,29-56.1600N,138-57.0600E,161,19.293,34.8795
1126,2003/3/5,21:56:00,29-55.8600N,138-57.1800E,161,19.274,34.8788
1127,2003/3/5,21:57:00,29-55.6400N,138-57.2700E,160,19.243,34.8784
1128,2003/3/5,21:58:00,29-55.4900N,138-57.3300E,160,19.209,34.8775
1129,2003/3/5,21:59:00,29-55.2100N,138-57.4400E,161,19.18,34.8763
1130,2003/3/5,22:00:00,29-54.9600N,138-57.5400E,161,19.13,34.8747
1131,2003/3/5,22:01:00,29-54.7700N,138-57.6200E,160,19.091,34.8738
1132,2003/3/5,22:02:00,29-54.5100N,138-57.7200E,162,19.063,34.8718
1133,2003/3/5,22:03:00,29-54.3500N,138-57.7800E,162,19.022,34.8718
1134,2003/3/5,22:04:00,29-54.0800N,138-57.8900E,162,18.955,34.8701
1135,2003/3/5,22:05:00,29-53.8400N,138-57.9800E,160,18.908,34.8681
1136,2003/3/5,22:06:00,29-53.6300N,138-58.0600E,161,18.907,34.8633
1137,2003/3/5,22:07:00,29-53.4100N,138-58.1400E,160,18.932,34.8616
1138,2003/3/5,22:08:00,29-53.2000N,138-58.2200E,161,18.948,34.8611
1139,2003/3/5,22:09:00,29-52.9800N,138-58.3100E,161,18.954,34.8632
1140,2003/3/5,22:10:00,29-52.7800N,138-58.3800E,161,18.966,34.8644
1141,2003/3/5,22:11:00,29-52.5600N,138-58.4600E,161,18.977,34.8657
1142,2003/3/5,22:12:00,29-52.3900N,138-58.5300E,162,18.987,34.8647
1143,2003/3/5,22:13:00,29-52.1800N,138-58.6000E,162,18.998,34.8662
1144,2003/3/5,22:14:00,29-51.9000N,138-58.7100E,161,19.008,34.8665
1145,2003/3/5,22:15:00,29-51.6900N,138-58.7900E,161,19.013,34.8667
1146,2003/3/5,22:16:00,29-51.4800N,138-58.8700E,161,19.02,34.8671
1147,2003/3/5,22:17:00,29-51.2500N,138-58.9600E,161,19.024,34.8674
1148,2003/3/5,22:18:00,29-51.0400N,138-59.0400E,160,19.025,34.8683
1149,2003/3/5,22:19:00,29-50.8600N,138-59.1100E,161,19.025,34.8686
1150,2003/3/5,22:20:00,29-50.6500N,138-59.2000E,161,19.023,34.8683
1151,2003/3/5,22:21:00,29-50.5200N,138-59.2400E,161,19.022,34.8685
1152,2003/3/5,22:22:00,29-50.1800N,138-59.3700E,161,19.025,34.8683
1153,2003/3/5,22:23:00,29-49.9600N,138-59.4600E,160,19.025,34.869
1154,2003/3/5,22:24:00,29-49.7500N,138-59.5400E,161,19.032,34.8695
1155,2003/3/5,22:25:00,29-49.5300N,138-59.6200E,160,19.03,34.8685
1156,2003/3/5,22:26:00,29-49.3000N,138-59.7100E,161,19.029,34.8689
1157,2003/3/5,22:27:00,29-49.0800N,138-59.7900E,162,19.03,34.8691
1158,2003/3/5,22:28:00,29-48.8700N,138-59.8700E,162,19.033,34.8683
1159,2003/3/5,22:29:00,29-48.7200N,138-59.9200E,161,19.028,34.8691
1160,2003/3/5,22:30:00,29-48.4400N,139-00.0300E,161,19.027,34.8685
1161,2003/3/5,22:31:00,29-48.1900N,139-00.1200E,161,19.025,34.8681
1162,2003/3/5,22:32:00,29-47.9700N,139-00.2100E,162,19.021,34.8688
1163,2003/3/5,22:33:00,29-47.7500N,139-00.2900E,161,19.022,34.8685
1164,2003/3/5,22:34:00,29-47.6000N,139-00.3400E,162,19.022,34.8684
1165,2003/3/5,22:35:00,29-47.3100N,139-00.4500E,161,19.023,34.869
1166,2003/3/5,22:36:00,29-47.0800N,139-00.5400E,161,19.023,34.8689
1167,2003/3/5,22:37:00,29-46.8700N,139-00.6200E,161,19.026,34.8686
1168,2003/3/5,22:38:00,29-46.6400N,139-00.7000E,162,19.022,34.8687
1169,2003/3/5,22:39:00,29-46.4200N,139-00.7800E,162,19.023,34.868
1170,2003/3/5,22:40:00,29-46.1900N,139-00.8600E,162,19.019,34.868
1171,2003/3/5,22:41:00,29-45.9900N,139-00.9300E,161,19.014,34.8688
1172,2003/3/5,22:42:00,29-45.7400N,139-01.0200E,162,19.008,34.8685
1173,2003/3/5,22:43:00,29-45.5200N,139-01.1000E,162,18.999,34.8685
1174,2003/3/5,22:44:00,29-45.2900N,139-01.1800E,163,18.994,34.8691
1175,2003/3/5,22:45:00,29-45.0900N,139-01.2500E,162,18.986,34.8689
1176,2003/3/5,22:46:00,29-44.9400N,139-01.3100E,161,18.983,34.8686
1177,2003/3/5,22:47:00,29-44.6300N,139-01.4300E,161,18.98,34.8682
1178,2003/3/5,22:48:00,29-44.4000N,139-01.5100E,161,18.982,34.8666
1179,2003/3/5,22:49:00,29-44.2100N,139-01.5800E,163,18.978,34.8671
1180,2003/3/5,22:50:00,29-44.0000N,139-01.6600E,161,18.971,34.8661
1181,2003/3/5,22:51:00,29-43.8100N,139-01.7300E,162,18.964,34.8654
1182,2003/3/5,22:52:00,29-43.5600N,139-01.8100E,164,18.948,34.8645
1183,2003/3/5,22:53:00,29-43.2800N,139-01.9000E,164,18.94,34.864
1184,2003/3/5,22:54:00,29-43.0800N,139-01.9600E,164,18.931,34.8628
1185,2003/3/5,22:55:00,29-42.8100N,139-02.0400E,165,18.927,34.8613
1186,2003/3/5,22:56:00,29-42.6200N,139-02.1000E,165,18.921,34.8603
1187,2003/3/5,22:57:00,29-42.3500N,139-02.1700E,165,18.922,34.8589
1188,2003/3/5,22:58:00,29-42.1300N,139-02.2300E,166,18.923,34.8566
1189,2003/3/5,22:59:00,29-41.8900N,139-02.3000E,165,18.915,34.8558
1190,2003/3/5,23:00:00,29-41.6900N,139-02.3500E,166,18.902,34.8555
1191,2003/3/5,23:01:00,29-41.4200N,139-02.4300E,165,18.895,34.8545
1192,2003/3/5,23:02:00,29-41.2600N,139-02.4700E,166,18.884,34.8523